Location: Columbia
(38.9520°N, 92.3340°W)
Time: 05:09:51
(UTC-05:00)

SJ-11-01 - Visible Passes

Search period start: 26 August 2016 00:00
Search period end: 05 September 2016 00:00
Orbit: 684 x 702 km, 98.2° (Epoch: 25 August)

Date Brightness Start Highest point End Pass type
(mag) Time Alt. Az. Time Alt. Az. Time Alt. Az.
26 Aug 4.2 21:18:53 22° SSE 21:21:55 82° ENE 21:26:37 10° N visible
27 Aug 5.7 20:21:10 10° ESE 20:24:40 21° ENE 20:28:11 10° NNE visible
27 Aug 5.5 21:59:29 21° SSW 22:01:59 37° W 22:06:20 10° NNW visible
28 Aug 4.4 21:01:22 20° SE 21:04:24 53° ENE 21:08:58 10° N visible
28 Aug 6.9 22:40:05 11° WSW 22:42:16 14° W 22:44:48 10° WNW visible
29 Aug 4.8 21:41:59 27° S 21:44:22 58° W 21:49:00 10° NNW visible
30 Aug 5.0 20:43:52 17° SE 20:46:55 35° ENE 20:51:11 10° N visible
30 Aug 6.4 22:22:35 17° SW 22:24:33 22° W 22:28:10 10° NW visible
31 Aug 4.2 21:24:29 30° SSE 21:26:48 89° WSW 21:31:30 10° NNW visible
01 Sep 5.5 20:26:23 13° ESE 20:29:31 24° ENE 20:33:13 10° NNE visible
01 Sep 5.7 22:05:05 25° SW 22:06:53 33° W 22:11:06 10° NNW visible
02 Sep 4.3 21:07:00 29° SE 21:09:16 60° ENE 21:13:53 10° N visible
02 Sep 6.9 22:45:42 11° WSW 22:47:12 13° W 22:49:14 10° WNW visible
03 Sep 6.0 20:09:18 10° ESE 20:12:08 16° ENE 20:14:57 10° NNE visible
03 Sep 4.9 21:47:36 34° SSW 21:49:15 51° W 21:53:49 10° NNW visible
04 Sep 4.8 20:49:30 23° ESE 20:51:47 39° ENE 20:56:08 10° N visible
04 Sep 6.4 22:28:13 18° WSW 22:29:28 19° W 22:32:50 10° NW visible
